Tracking 32139 objects as of 19-Nov-2025
HD Live streaming from Space Station
objects crossing your sky now

TIGER-7

Track TIGER-7 now!
10-day predictions


NORAD ID: 59141
Int'l Code: 2024-043AV
Perigee: 441.2 km
Apogee: 449.9 km
Inclination: 97.5 °
Period: 93.3 minutes
Semi major axis: 6816 km
RCS: Unknown
Launch date: March 4, 2024
Source: Republic of Rwanda (RWA)
Launch site: AIR FORCE WESTERN TEST RANGE (AFWTR)
Your satellite tracking list
Your tracking list is empty




NASA's NSSDC Master Catalog

Two Line Element Set (TLE):
1 59141U 24043AV  25322.93144911  .00013136  00000-0  30367-3 0  9995
2 59141  97.5245 100.8225 0006397 207.6682 152.4226 15.42612195 95493
Source of the keplerian elements: AFSPC